Weather History for Elkins, WV

Change the Weather History Date:

Saturday, October 12, 2013

  Actual Average Record
Temperature  
Mean Temperature 64 °F 52 °F  
Max Temperature 74 °F 65 °F 84 °F (2008)
Min Temperature 54 °F 40 °F 16 °F (1906)
Degree Days  
Heating Degree Days 1 13  
Month to date heating degree days 52 131  
Since 1 July heating degree days 188 291  
Cooling Degree Days 0 0  
Month to date cooling degree days 10 0  
Year to date cooling degree days 533 471  
Growing Degree Days 14 (Base 50)    
Moisture  
Dew Point 55 °F    
Average Humidity 77    
Maximum Humidity 93    
Minimum Humidity 61    
Precipitation  
Precipitation 0.00 in 0.09 in 1.12 in (1927)
Month to date precipitation 0.63 1.12  
Year to date precipitation 35.91 37.56  
Snow  
Snow 0.00 in - - ()
Month to date snowfall 0.0  
Since 1 September snowfall 0.0  
Snow Depth 0.00 in    
Sea Level Pressure  
Sea Level Pressure 30.12 in    
Wind  
Wind Speed 1 mph (ENE)    
Max Wind Speed 7 mph    
Max Gust Speed 13 mph    
Visibility 10 miles    
Events      
T = Trace of Precipitation, MM = Missing Value Source: NWS Daily Summary

Daily Weather History Graph

Daily Weather History Graph

Search for Another Location

Airport:

Trip Planner

Search our weather history database for the weather conditions in past years. The results will help you decide how hot, cold, wet, or windy it might be!

Date:

Astronomy

Oct. 12, 2013 Rise Set
Actual Time 7:26 AM EDT 6:44 PM EDT
Civil Twilight 6:59 AM EDT 7:11 PM EDT
Nautical Twilight 6:28 AM EDT 7:42 PM EDT
Astronomical Twilight 5:57 AM EDT 8:13 PM EDT
Moon 2:50 PM EDT (10/12) 12:31 AM EDT (10/12)
Length of Visible Light 12h 12m
Length of Day
11h 18m
First Quarter, 58% of the Moon is Illuminated
Oct 12
First Quarter
Oct 18
Full
Oct 26
Last Quarter
Nov 3
New
Nov 10
First Quarter

Hourly Weather History & Observations

Time (EDT) Temp. Dew Point Humidity Pressure Visibility Wind Dir Wind Speed Gust Speed Precip Events Conditions
12:51 AM 55.9 °F 54.0 °F 93% 30.07 in 10.0 mi Calm Calm - N/A   Overcast
1:51 AM 55.9 °F 54.0 °F 93% 30.07 in 10.0 mi Calm Calm - N/A   Overcast
2:29 AM 55.4 °F 53.6 °F 94% 30.06 in 10.0 mi Calm Calm - N/A   Overcast
2:51 AM 55.9 °F 54.0 °F 93% 30.06 in 10.0 mi Calm Calm - N/A   Overcast
3:22 AM 57.2 °F 53.6 °F 88% 30.06 in 10.0 mi Calm Calm - N/A   Overcast
3:51 AM 55.9 °F 54.0 °F 93% 30.07 in 10.0 mi Calm Calm - N/A   Overcast
3:59 AM 55.4 °F 53.6 °F 94% 30.07 in 10.0 mi Calm Calm - N/A   Overcast
4:20 AM 55.4 °F 53.6 °F 94% 30.07 in 10.0 mi Calm Calm - N/A   Overcast
4:51 AM 55.0 °F 53.1 °F 93% 30.07 in 10.0 mi Calm Calm - N/A   Mostly Cloudy
5:16 AM 55.4 °F 53.6 °F 94% 30.07 in 10.0 mi Calm Calm - N/A   Mostly Cloudy
5:51 AM 55.0 °F 53.1 °F 93% 30.09 in 10.0 mi Calm Calm - N/A   Overcast
6:51 AM 55.9 °F 54.0 °F 93% 30.11 in 10.0 mi Calm Calm - N/A   Overcast
7:10 AM 55.4 °F 53.6 °F 94% 30.11 in 10.0 mi Calm Calm - N/A   Overcast
7:51 AM 55.9 °F 54.0 °F 93% 30.12 in 10.0 mi Calm Calm - N/A   Overcast
8:04 AM 57.2 °F 53.6 °F 88% 30.11 in 10.0 mi Calm Calm - N/A   Overcast
8:31 AM 57.2 °F 53.6 °F 88% 30.12 in 10.0 mi Calm Calm - N/A   Overcast
8:44 AM 57.2 °F 53.6 °F 88% 30.12 in 10.0 mi Calm Calm - N/A   Overcast
8:51 AM 57.0 °F 54.0 °F 89% 30.14 in 10.0 mi Calm Calm - N/A   Overcast
9:15 AM 57.2 °F 55.4 °F 94% 30.13 in 10.0 mi Calm Calm - N/A   Mostly Cloudy
9:35 AM 59.0 °F 55.4 °F 88% 30.12 in 10.0 mi Calm Calm - N/A   Mostly Cloudy
9:40 AM 57.2 °F 53.6 °F 88% 30.12 in 10.0 mi Calm Calm - N/A   Mostly Cloudy
9:49 AM 57.2 °F 55.4 °F 94% 30.12 in 10.0 mi Calm Calm - N/A   Mostly Cloudy
9:51 AM 59.0 °F 55.0 °F 87% 30.12 in 10.0 mi Calm Calm - N/A   Mostly Cloudy
9:58 AM 59.0 °F 55.4 °F 88% 30.12 in 10.0 mi Calm Calm - N/A   Partly Cloudy
10:31 AM 60.8 °F 55.4 °F 82% 30.13 in 10.0 mi Calm Calm - N/A   Overcast
10:51 AM 64.0 °F 57.0 °F 78% 30.13 in 10.0 mi Calm Calm - N/A   Overcast
11:51 AM 68.0 °F 57.9 °F 70% 30.11 in 10.0 mi WNW 3.5 mph - N/A   Overcast
12:51 PM 70.0 °F 57.9 °F 65% 30.11 in 10.0 mi Variable 3.5 mph - N/A   Overcast
1:00 PM 71.6 °F 57.2 °F 60% 30.11 in 10.0 mi Calm Calm - N/A   Overcast
1:51 PM 71.1 °F 57.9 °F 63% 30.09 in 10.0 mi Variable 4.6 mph - N/A   Overcast
2:51 PM 71.1 °F 57.9 °F 63% 30.09 in 10.0 mi North 3.5 mph - N/A   Overcast
3:51 PM 71.1 °F 57.9 °F 63% 30.10 in 10.0 mi Calm Calm - N/A   Overcast
4:51 PM 71.1 °F 59.0 °F 66% 30.11 in 10.0 mi Calm Calm - N/A   Overcast
5:51 PM 71.1 °F 57.9 °F 63% 30.11 in 10.0 mi SE 5.8 mph - N/A   Partly Cloudy
6:51 PM 64.9 °F 55.9 °F 73% 30.14 in 10.0 mi ESE 4.6 mph - N/A   Mostly Cloudy
7:51 PM 64.0 °F 55.0 °F 73% 30.17 in 10.0 mi Calm Calm - N/A   Overcast
8:51 PM 63.0 °F 55.0 °F 75% 30.18 in 10.0 mi Calm Calm - N/A   Overcast
9:51 PM 63.0 °F 55.0 °F 75% 30.19 in 10.0 mi Calm Calm - N/A   Overcast
10:51 PM 62.1 °F 55.0 °F 78% 30.19 in 10.0 mi Calm Calm - N/A   Mostly Cloudy
11:20 PM 60.8 °F 53.6 °F 77% 30.19 in 10.0 mi Calm Calm - N/A   Mostly Cloudy
11:39 PM 57.2 °F 53.6 °F 88% 30.19 in 10.0 mi Calm Calm - N/A   Scattered Clouds
11:51 PM 57.0 °F 54.0 °F 89% 30.18 in 10.0 mi Calm Calm - N/A   Mostly Cloudy